Location: Rumah Apan
(2.7833°N, 113.9500°E)
Time: 23:04:44
(UTC+00:00)

Cosmos 2058 Rocket - Pass Details

Date: 25 July 2021
Orbit: 611 x 638 km, 82.5° (Epoch: 22 September)

Event Time Altitude Azimuth Distance (km) Brightness Sun altitude
Rises 11:29:43 0° 351° (N) 2,875 6.9 -12.9°
Reaches altitude 10° 11:31:56 10° 349° (NNW) 1,976 6.1 -13.4°
Maximum altitude 11:36:16 66° 266° (W) 677 3.4 -14.4°
Drops below altitude 10° 11:40:40 10° 184° (S) 2,000 5.5 -15.4°
Sets 11:42:56 0° 181° (S) 2,913 6.3 -16.0°
